Time,TemperatureF,DewpointF,PressureIn,WindDirection,WindDirectionDegrees,WindSpeedMPH,WindSpeedGustMPH,Humidity,HourlyPrecipIn,Conditions,Clouds,dailyrainin,SoftwareType,DateUTC
2013-03-28 00:01:00,45.0,19.0,30.05,SSW,200,4.0,5.0,35,0.00,,,0.00,,2013-03-28 07:01:00,
2013-03-28 00:11:00,45.0,19.0,30.05,SSW,200,4.0,5.0,35,0.00,,,0.00,,2013-03-28 07:11:00,
2013-03-28 00:21:00,44.0,18.0,30.05,SSW,202,1.0,4.0,35,0.00,,,0.00,,2013-03-28 07:21:00,
2013-03-28 00:42:00,44.0,18.0,30.06,SSW,202,2.0,4.0,35,0.00,,,0.00,,2013-03-28 07:42:00,
2013-03-28 00:52:00,47.0,19.0,30.06,SW,236,6.0,9.0,32,0.00,,,0.00,,2013-03-28 07:52:00,
2013-03-28 01:02:00,48.0,18.0,30.06,SW,230,6.0,9.0,30,0.00,,,0.00,,2013-03-28 08:02:00,
2013-03-28 01:11:00,48.0,18.0,30.06,SW,230,6.0,9.0,30,0.00,,,0.00,,2013-03-28 08:11:00,
2013-03-28 01:21:00,47.0,19.0,30.06,SW,217,4.0,6.0,32,0.00,,,0.00,,2013-03-28 08:21:00,
2013-03-28 01:31:00,46.0,19.0,30.06,SW,216,4.0,6.0,33,0.00,,,0.00,,2013-03-28 08:31:00,
2013-03-28 01:41:00,46.0,19.0,30.06,SW,216,4.0,6.0,33,0.00,,,0.00,,2013-03-28 08:41:00,
2013-03-28 01:52:00,44.0,18.0,30.06,SW,215,3.0,6.0,35,0.00,,,0.00,,2013-03-28 08:52:00,
2013-03-28 02:01:00,43.0,18.0,30.06,SSW,211,3.0,5.0,36,0.00,,,0.00,,2013-03-28 09:01:00,
2013-03-28 02:11:00,43.0,18.0,30.06,SSW,211,3.0,5.0,36,0.00,,,0.00,,2013-03-28 09:11:00,
2013-03-28 02:21:00,42.0,18.0,30.06,SSW,207,3.0,4.0,38,0.00,,,0.00,,2013-03-28 09:21:00,
2013-03-28 02:32:00,41.0,19.0,30.06,SSW,207,1.0,2.0,40,0.00,,,0.00,,2013-03-28 09:32:00,
2013-03-28 02:42:00,40.0,18.0,30.06,SSW,207,0.0,3.0,41,0.00,,,0.00,,2013-03-28 09:42:00,
2013-03-28 02:52:00,40.0,18.0,30.06,SSW,207,0.0,3.0,41,0.00,,,0.00,,2013-03-28 09:52:00,
2013-03-28 03:02:00,38.0,19.0,30.06,SSW,206,1.0,2.0,45,0.00,,,0.00,,2013-03-28 10:02:00,
2013-03-28 03:12:00,38.0,19.0,30.06,SSW,206,1.0,2.0,45,0.00,,,0.00,,2013-03-28 10:12:00,
2013-03-28 03:22:00,39.0,19.0,30.06,South,189,0.0,3.0,44,0.00,,,0.00,,2013-03-28 10:22:00,
2013-03-28 03:32:00,39.0,19.0,30.06,South,189,0.0,3.0,45,0.00,,,0.00,,2013-03-28 10:32:00,
2013-03-28 03:41:00,39.0,19.0,30.06,South,189,0.0,3.0,45,0.00,,,0.00,,2013-03-28 10:41:00,
2013-03-28 03:52:00,40.0,20.0,30.06,South,188,0.0,3.0,45,0.00,,,0.00,,2013-03-28 10:52:00,
2013-03-28 04:02:00,39.0,20.0,30.06,South,188,0.0,2.0,47,0.00,,,0.00,,2013-03-28 11:02:00,
2013-03-28 04:11:00,39.0,20.0,30.06,South,188,0.0,2.0,47,0.00,,,0.00,,2013-03-28 11:11:00,
2013-03-28 04:22:00,39.0,21.0,30.06,South,187,1.0,4.0,48,0.00,,,0.00,,2013-03-28 11:22:00,
2013-03-28 04:32:00,40.0,22.0,30.06,South,188,0.0,4.0,48,0.00,,,0.00,,2013-03-28 11:32:00,
2013-03-28 04:42:00,40.0,22.0,30.06,South,188,0.0,4.0,48,0.00,,,0.00,,2013-03-28 11:42:00,
2013-03-28 04:52:00,39.0,22.0,30.06,South,188,2.0,4.0,50,0.00,,,0.00,,2013-03-28 11:52:00,
2013-03-28 05:02:00,38.0,22.0,30.06,South,187,3.0,4.0,52,0.00,,,0.00,,2013-03-28 12:02:00,
2013-03-28 05:11:00,38.0,22.0,30.06,South,187,3.0,4.0,52,0.00,,,0.00,,2013-03-28 12:11:00,
2013-03-28 05:22:00,39.0,21.0,30.06,South,188,0.0,3.0,49,0.00,,,0.00,,2013-03-28 12:22:00,
2013-03-28 05:31:00,39.0,22.0,30.07,South,187,1.0,3.0,50,0.00,,,0.00,,2013-03-28 12:31:00,
2013-03-28 05:41:00,39.0,22.0,30.07,South,187,1.0,3.0,50,0.00,,,0.00,,2013-03-28 12:41:00,
2013-03-28 05:52:00,40.0,22.0,30.07,South,188,0.0,1.0,48,0.00,,,0.00,,2013-03-28 12:52:00,
2013-03-28 06:01:00,40.0,21.0,30.07,South,187,1.0,3.0,47,0.00,,,0.00,,2013-03-28 13:01:00,
2013-03-28 06:11:00,40.0,21.0,30.07,South,187,1.0,3.0,47,0.00,,,0.00,,2013-03-28 13:11:00,
2013-03-28 06:21:00,41.0,22.0,30.07,South,188,2.0,4.0,47,0.00,,,0.00,,2013-03-28 13:21:00,
2013-03-28 06:31:00,40.0,22.0,30.08,SSW,194,3.0,4.0,48,0.00,,,0.00,,2013-03-28 13:31:00,
2013-03-28 06:41:00,40.0,22.0,30.08,SSW,194,3.0,4.0,48,0.00,,,0.00,,2013-03-28 13:41:00,
2013-03-28 06:52:00,41.0,23.0,30.08,SSW,194,3.0,4.0,48,0.00,,,0.00,,2013-03-28 13:52:00,
2013-03-28 07:01:00,40.0,22.0,30.09,SSW,194,2.0,3.0,49,0.00,,,0.00,,2013-03-28 14:01:00,
2013-03-28 07:11:00,40.0,22.0,30.09,SSW,194,2.0,3.0,49,0.00,,,0.00,,2013-03-28 14:11:00,
2013-03-28 07:21:00,41.0,23.0,30.09,SSW,194,0.0,1.0,49,0.00,,,0.00,,2013-03-28 14:21:00,
2013-03-28 07:32:00,42.0,24.0,30.10,SSW,194,0.0,0.0,48,0.00,,,0.00,,2013-03-28 14:32:00,
2013-03-28 07:42:00,42.0,24.0,30.10,SSW,194,0.0,0.0,48,0.00,,,0.00,,2013-03-28 14:42:00,
2013-03-28 08:01:00,49.0,27.0,30.10,SSW,194,0.0,1.0,42,0.00,,,0.00,,2013-03-28 15:01:00,
2013-03-28 08:21:00,49.0,29.0,30.11,SSE,149,0.0,4.0,45,0.00,,,0.00,,2013-03-28 15:21:00,
2013-03-28 08:32:00,51.0,29.0,30.11,SE,130,1.0,4.0,42,0.00,,,0.00,,2013-03-28 15:32:00,
2013-03-28 09:02:00,55.0,29.0,30.11,SE,137,1.0,5.0,36,0.00,,,0.00,,2013-03-28 16:02:00,
2013-03-28 09:22:00,55.0,28.0,30.11,SW,223,4.0,9.0,35,0.00,,,0.00,,2013-03-28 16:22:00,
2013-03-28 09:32:00,56.0,28.0,30.11,SSW,198,6.0,15.0,34,0.00,,,0.00,,2013-03-28 16:32:00,
2013-03-28 09:41:00,56.0,28.0,30.11,SSW,198,6.0,15.0,34,0.00,,,0.00,,2013-03-28 16:41:00,
2013-03-28 09:52:00,57.0,27.0,30.12,SE,135,3.0,17.0,32,0.00,,,0.00,,2013-03-28 16:52:00,
2013-03-28 10:02:00,57.0,23.0,30.12,West,275,11.0,18.0,27,0.00,,,0.00,,2013-03-28 17:02:00,
2013-03-28 10:12:00,57.0,23.0,30.12,West,275,11.0,18.0,27,0.00,,,0.00,,2013-03-28 17:12:00,
2013-03-28 10:21:00,57.0,22.0,30.12,SSW,210,5.0,15.0,26,0.00,,,0.00,,2013-03-28 17:21:00,
2013-03-28 10:31:00,57.0,23.0,30.13,NW,312,7.0,18.0,27,0.00,,,0.00,,2013-03-28 17:31:00,
2013-03-28 10:42:00,57.0,23.0,30.13,NW,312,7.0,18.0,27,0.00,,,0.00,,2013-03-28 17:42:00,
2013-03-28 10:52:00,58.0,24.0,30.13,SW,217,11.0,19.0,27,0.00,,,0.00,,2013-03-28 17:52:00,
2013-03-28 11:01:00,58.0,23.0,30.13,SW,227,12.0,20.0,26,0.00,,,0.00,,2013-03-28 18:01:00,
2013-03-28 11:12:00,58.0,23.0,30.13,SW,227,12.0,20.0,26,0.00,,,0.00,,2013-03-28 18:12:00,
2013-03-28 11:21:00,58.0,24.0,30.13,WSW,247,11.0,19.0,27,0.00,,,0.00,,2013-03-28 18:21:00,
2013-03-28 11:31:00,58.0,23.0,30.13,WSW,247,11.0,17.0,26,0.00,,,0.00,,2013-03-28 18:31:00,
2013-03-28 11:41:00,58.0,23.0,30.13,WSW,247,11.0,17.0,26,0.00,,,0.00,,2013-03-28 18:41:00,
2013-03-28 11:52:00,57.0,23.0,30.12,SW,223,8.0,16.0,27,0.00,,,0.00,,2013-03-28 18:52:00,
2013-03-28 12:01:00,58.0,24.0,30.12,South,188,5.0,16.0,27,0.00,,,0.00,,2013-03-28 19:01:00,
2013-03-28 12:11:00,58.0,24.0,30.12,South,188,5.0,16.0,27,0.00,,,0.00,,2013-03-28 19:11:00,
2013-03-28 12:22:00,58.0,24.0,30.12,SW,215,12.0,22.0,27,0.00,,,0.00,,2013-03-28 19:22:00,
2013-03-28 12:31:00,59.0,26.0,30.11,SSW,211,8.0,17.0,28,0.00,,,0.00,,2013-03-28 19:31:00,
2013-03-28 12:41:00,59.0,26.0,30.11,SSW,211,8.0,17.0,28,0.00,,,0.00,,2013-03-28 19:41:00,
2013-03-28 12:52:00,59.0,26.0,30.11,SW,234,9.0,18.0,28,0.00,,,0.00,,2013-03-28 19:52:00,
2013-03-28 13:01:00,59.0,24.0,30.11,SW,216,6.0,13.0,26,0.00,,,0.00,,2013-03-28 20:01:00,
2013-03-28 13:11:00,59.0,25.0,30.10,WSW,250,7.0,16.0,27,0.00,,,0.00,,2013-03-28 20:11:00,
2013-03-28 13:21:00,59.0,25.0,30.10,WSW,250,7.0,16.0,27,0.00,,,0.00,,2013-03-28 20:21:00,
2013-03-28 13:32:00,61.0,26.0,30.10,SW,230,6.0,18.0,26,0.00,,,0.00,,2013-03-28 20:32:00,
2013-03-28 13:42:00,61.0,26.0,30.10,SW,230,6.0,18.0,26,0.00,,,0.00,,2013-03-28 20:42:00,
2013-03-28 13:52:00,61.0,26.0,30.10,SW,227,11.0,20.0,26,0.00,,,0.00,,2013-03-28 20:52:00,
2013-03-28 14:01:00,62.0,26.0,30.10,West,275,8.0,17.0,25,0.00,,,0.00,,2013-03-28 21:01:00,
2013-03-28 14:11:00,62.0,26.0,30.10,West,275,8.0,17.0,25,0.00,,,0.00,,2013-03-28 21:11:00,
2013-03-28 14:21:00,61.0,24.0,30.09,WSW,238,12.0,18.0,24,0.00,,,0.00,,2013-03-28 21:21:00,
2013-03-28 14:32:00,60.0,24.0,30.09,SW,230,16.0,22.0,25,0.00,,,0.00,,2013-03-28 21:32:00,
2013-03-28 14:42:00,60.0,24.0,30.09,SW,230,16.0,22.0,25,0.00,,,0.00,,2013-03-28 21:42:00,
2013-03-28 14:53:00,61.0,26.0,30.09,South,182,11.0,21.0,26,0.00,,,0.00,,2013-03-28 21:53:00,
2013-03-28 15:02:00,62.0,26.0,30.09,WSW,257,11.0,16.0,25,0.00,,,0.00,,2013-03-28 22:02:00,
2013-03-28 15:12:00,62.0,26.0,30.09,WSW,257,11.0,16.0,25,0.00,,,0.00,,2013-03-28 22:12:00,
2013-03-28 15:22:00,62.0,27.0,30.09,WSW,237,9.0,24.0,26,0.00,,,0.00,,2013-03-28 22:22:00,
2013-03-28 15:32:00,61.0,26.0,30.08,NNW,337,9.0,20.0,26,0.00,,,0.00,,2013-03-28 22:32:00,
2013-03-28 15:41:00,61.0,26.0,30.08,NNW,337,9.0,20.0,26,0.00,,,0.00,,2013-03-28 22:41:00,
2013-03-28 15:52:00,61.0,26.0,30.08,WSW,256,6.0,19.0,26,0.00,,,0.00,,2013-03-28 22:52:00,
2013-03-28 16:01:00,61.0,26.0,30.08,SW,229,13.0,21.0,26,0.00,,,0.00,,2013-03-28 23:01:00,
2013-03-28 16:11:00,61.0,26.0,30.08,SW,229,13.0,21.0,26,0.00,,,0.00,,2013-03-28 23:11:00,
2013-03-28 16:21:00,60.0,25.0,30.08,SW,214,9.0,23.0,26,0.00,,,0.00,,2013-03-28 23:21:00,
2013-03-28 16:31:00,61.0,26.0,30.07,SW,227,9.0,21.0,26,0.00,,,0.00,,2013-03-28 23:31:00,
2013-03-28 16:42:00,61.0,26.0,30.07,SW,227,9.0,21.0,26,0.00,,,0.00,,2013-03-28 23:42:00,
2013-03-28 16:52:00,60.0,25.0,30.08,SW,222,8.0,18.0,26,0.00,,,0.00,,2013-03-28 23:52:00,
2013-03-28 17:11:00,60.0,25.0,30.08,SW,227,8.0,17.0,26,0.00,,,0.00,,2013-03-29 00:11:00,
2013-03-28 17:21:00,61.0,26.0,30.07,WSW,244,13.0,19.0,26,0.00,,,0.00,,2013-03-29 00:21:00,
2013-03-28 17:32:00,60.0,25.0,30.08,SW,216,7.0,18.0,26,0.00,,,0.00,,2013-03-29 00:32:00,
2013-03-28 17:42:00,60.0,25.0,30.08,SW,216,7.0,18.0,26,0.00,,,0.00,,2013-03-29 00:42:00,
2013-03-28 17:52:00,60.0,25.0,30.08,South,176,7.0,12.0,26,0.00,,,0.00,,2013-03-29 00:52:00,
2013-03-28 18:01:00,59.0,24.0,30.08,WSW,246,7.0,16.0,26,0.00,,,0.00,,2013-03-29 01:01:00,
2013-03-28 18:11:00,59.0,24.0,30.08,WSW,246,7.0,16.0,26,0.00,,,0.00,,2013-03-29 01:11:00,
2013-03-28 18:22:00,59.0,24.0,30.09,SSW,194,7.0,15.0,26,0.00,,,0.00,,2013-03-29 01:22:00,
2013-03-28 18:31:00,58.0,23.0,30.09,SSW,211,6.0,14.0,26,0.00,,,0.00,,2013-03-29 01:31:00,
2013-03-28 18:42:00,58.0,23.0,30.09,SSW,211,6.0,14.0,26,0.00,,,0.00,,2013-03-29 01:42:00,
2013-03-28 18:52:00,57.0,23.0,30.09,WSW,240,6.0,11.0,27,0.00,,,0.00,,2013-03-29 01:52:00,
2013-03-28 19:02:00,56.0,23.0,30.10,SW,227,6.0,11.0,28,0.00,,,0.00,,2013-03-29 02:02:00,
2013-03-28 19:11:00,56.0,23.0,30.10,SW,227,6.0,11.0,28,0.00,,,0.00,,2013-03-29 02:11:00,
2013-03-28 19:21:00,56.0,24.0,30.10,SW,221,6.0,9.0,29,0.00,,,0.00,,2013-03-29 02:21:00,
2013-03-28 19:31:00,55.0,24.0,30.11,SW,234,7.0,11.0,30,0.00,,,0.00,,2013-03-29 02:31:00,
2013-03-28 19:41:00,55.0,24.0,30.11,SW,234,7.0,11.0,30,0.00,,,0.00,,2013-03-29 02:41:00,
2013-03-28 19:52:00,55.0,25.0,30.11,SW,219,7.0,8.0,31,0.00,,,0.00,,2013-03-29 02:52:00,
2013-03-28 20:11:00,54.0,24.0,30.11,SW,223,4.0,8.0,31,0.00,,,0.00,,2013-03-29 03:11:00,
2013-03-28 20:32:00,53.0,25.0,30.12,SSW,209,3.0,5.0,33,0.00,,,0.00,,2013-03-29 03:32:00,
2013-03-28 20:42:00,53.0,25.0,30.12,SSW,209,3.0,5.0,33,0.00,,,0.00,,2013-03-29 03:42:00,
2013-03-28 20:53:00,52.0,25.0,30.12,SSW,207,4.0,5.0,34,0.00,,,0.00,,2013-03-29 03:53:00,
2013-03-28 21:02:00,52.0,25.0,30.13,SSW,206,3.0,4.0,34,0.00,,,0.00,,2013-03-29 04:02:00,
2013-03-28 21:12:00,52.0,25.0,30.13,SSW,206,3.0,4.0,34,0.00,,,0.00,,2013-03-29 04:12:00,
2013-03-28 21:22:00,51.0,24.0,30.13,SSW,203,3.0,5.0,35,0.00,,,0.00,,2013-03-29 04:22:00,
2013-03-28 21:32:00,51.0,24.0,30.13,SSW,209,2.0,4.0,35,0.00,,,0.00,,2013-03-29 04:32:00,
2013-03-28 21:42:00,51.0,24.0,30.13,SSW,209,2.0,4.0,35,0.00,,,0.00,,2013-03-29 04:42:00,
2013-03-28 21:52:00,48.0,24.0,30.14,SSW,209,3.0,4.0,38,0.00,,,0.00,,2013-03-29 04:52:00,
2013-03-28 22:02:00,48.0,24.0,30.14,SSW,213,3.0,4.0,38,0.00,,,0.00,,2013-03-29 05:02:00,
2013-03-28 22:12:00,48.0,24.0,30.14,SSW,213,3.0,4.0,38,0.00,,,0.00,,2013-03-29 05:12:00,
2013-03-28 22:22:00,49.0,24.0,30.14,SW,221,3.0,6.0,37,0.00,,,0.00,,2013-03-29 05:22:00,
2013-03-28 22:32:00,47.0,23.0,30.15,SW,221,1.0,3.0,39,0.00,,,0.00,,2013-03-29 05:32:00,
2013-03-28 22:42:00,47.0,23.0,30.15,SW,221,1.0,3.0,39,0.00,,,0.00,,2013-03-29 05:42:00,
2013-03-28 22:52:00,47.0,23.0,30.15,SW,221,1.0,3.0,39,0.00,,,0.00,,2013-03-29 05:52:00,
2013-03-28 23:01:00,45.0,24.0,30.15,SW,221,0.0,2.0,43,0.00,,,0.00,,2013-03-29 06:01:00,
2013-03-28 23:12:00,45.0,24.0,30.15,SW,221,0.0,2.0,43,0.00,,,0.00,,2013-03-29 06:12:00,
2013-03-28 23:22:00,44.0,23.0,30.15,SW,221,2.0,3.0,44,0.00,,,0.00,,2013-03-29 06:22:00,
2013-03-28 23:32:00,44.0,24.0,30.15,SW,221,0.0,2.0,45,0.00,,,0.00,,2013-03-29 06:32:00,
2013-03-28 23:41:00,44.0,24.0,30.15,SW,221,0.0,2.0,45,0.00,,,0.00,,2013-03-29 06:41:00,
2013-03-28 23:52:00,43.0,24.0,30.15,SW,221,0.0,0.0,46,0.00,,,0.00,,2013-03-29 06:52:00,